Zurück zum Katalog

COSMOS 1308

AktivMilitärPO
NORAD 12835·PAYLOAD·🇷🇺 Russia

Gestartet Sep 18, 1981 von Plesetsk Cosmodrome

Loading…

Nächste Überflüge (nächste 24 Stunden)

TLE

AktuellSource: Space-Track

Epoche: Sep 14, 2026, 14:11 UTC

1 12835U 81091A   26257.59147242  .00000028  00000-0  12832-4 0  9994
2 12835  82.9164 108.1189 0026919 203.2886 173.8864 13.75657841257856

Verfolge COSMOS 1308 in Echtzeit mit AllMySat

Download on the App Store